Regional Weather Roundup
Issued by NWS Raleigh/Durham, NC

Home | Current Version | Previous Version | Text Only | Print | Product List | Glossary On
Versions: 1 2 3 4 5 6 7 8 9 10 11 12 13 14 15 16 17 18 19 20 21 22 23 24 25 26 27 28 29 30 31 32 33 34 35 36 37 38 39 40 41 42 43 44 45 46 47 48 49 50
000
ASUS42 KRAH 020310
RWRRAH
NORTH CAROLINA WEATHER ROUNDUP
NATIONAL WEATHER SERVICE RALEIGH NC
1100 PM EDT SAT AUG 01 2015

NOTE: "FAIR" INDICATES FEW OR NO CLOUDS BELOW 12,000 FEET WITH NO
SIGNIFICANT WEATHER AND/OR OBSTRUCTIONS TO VISIBILITY.

NCZ001-053-055-056-065-067-020400-
WESTERN NORTH CAROLINA

CITY           SKY/WX    TMP DP  RH WIND       PRES   REMARKS
ASHEVILLE      CLEAR     69  57  65 N5        30.06R
JEFFERSON      CLEAR     67  54  61 CALM      30.09S
MORGANTON      CLEAR     70  60  71 CALM      30.03S
HICKORY        CLEAR     75  57  53 CALM      29.98R
RUTHERFORDTON  CLEAR     73  57  56 CALM      29.98S
MOUNT AIRY     CLEAR     72  60  65 CALM      30.00S
BOONE          CLEAR     60  59  97 CALM      30.11S
$$

NCZ021-022-025-041-071-084-088-020400-
CENTRAL NORTH CAROLINA

CITY           SKY/WX    TMP DP  RH WIND       PRES   REMARKS
CHARLOTTE      CLEAR     84  53  34 E5        29.95R
GREENSBORO     PTCLDY    78  58  49 CALM      29.96R
WINSTON-SALEM  CLEAR     77  56  48 N6        29.97R
RALEIGH-DURHAM PTCLDY    73  64  73 CALM      29.92S
FORT BRAGG     PTCLDY    77  69  75 CALM      29.90S
FAYETTEVILLE   CLEAR     80  70  71 S5        29.90S
BURLINGTON     CLEAR     74  62  66 CALM      29.94R
LAURINBURG     PTCLDY    82  68  62 SE8       29.91S
$$

NCZ011-015-027-028-043-044-047-080-103-020400-
NORTHEASTERN NORTH CAROLINA

CITY           SKY/WX    TMP DP  RH WIND       PRES   REMARKS
ROCKY MT-WILSO CLEAR     72  63  73 CALM      29.90S
GREENVILLE     CLEAR     73  70  88 CALM      29.93R
WASHINGTON     CLEAR     79  75  87 S5        29.91S
ELIZABETH CITY CLEAR     78  74  87 S7        29.90S
MANTEO         CLEAR     81  75  81 SW8       29.91S
CAPE HATTERAS  CLEAR     80  74  81 W7        29.92S
$$

NCZ078-087-090-091-093-098-101-020400-
SOUTHEASTERN NORTH CAROLINA

CITY           SKY/WX    TMP DP  RH WIND       PRES   REMARKS
LUMBERTON      CLEAR     81  72  74 S5        29.91R
GOLDSBORO      CLEAR     76  66  69 E1        29.89S
KINSTON        CLEAR     77  73  88 S6        29.92S
KENANSVILLE    CLEAR     77  73  85 CALM      29.93S
NEW BERN       CLEAR     78  74  87 SW6       29.93R
CHERRY POINT   CLEAR     77  74  90 S7        29.93S
BEAUFORT       PTCLDY    80  76  87 SW14      29.92S
JACKSONVILLE   CLEAR     77  73  87 SW3       29.92R
WILMINGTON     CLEAR     77  73  87 S6        29.92S
$$



USA.gov is the U.S. government's official web portal to all federal, state and local government web resources and services.